When you browse on this site, cookies collect data to enhance your experience and personalize the content and advertising you see.
Visit our Privacy Policy to learn more. By continuing to use the site, you agree to this use of cookies and data.
  • In Netherlands
  • List of Countries
  • For 7 days
  • Water Temperature
  • Satellite Maps
  • Weather Map
  • Weather Widgets
  • user-avatar
    Login

    Hourly Weather Aleksandrów Łódzki

    Today, 23 April, Tuesday

    Time Temperature Precipitation Wind Pressure Humidity
    00:00 +8°C° 0 mm 7 mps 748 mmHg 56%
    01:00 +8°C° 0 mm 6 mps 748 mmHg 56%
    02:00 +6°C° 0 mm 7 mps 748 mmHg 55%
    03:00 +6°C° 0 mm 7 mps 748 mmHg 54%
    04:00 +6°C° 0 mm 8 mps 747 mmHg 54%
    05:00 +7°C° 0 mm 8 mps 747 mmHg 53%
    06:00 +7°C° 0 mm 9 mps 747 mmHg 52%
    07:00 +8°C° 0 mm 9 mps 747 mmHg 51%
    08:00 +10°C° 0 mm 9 mps 747 mmHg 48%
    09:00 +12°C° 0 mm 10 mps 747 mmHg 46%
    10:00 +13°C° 0 mm 10 mps 747 mmHg 43%
    11:00 +14°C° 0 mm 10 mps 746 mmHg 42%
    12:00 +16°C° 0 mm 10 mps 746 mmHg 42%
    13:00 +17°C° 0 mm 10 mps 746 mmHg 41%
    14:00 +17°C° 0 mm 10 mps 746 mmHg 41%
    15:00 +17°C° 0 mm 10 mps 745 mmHg 42%
    16:00 +17°C° 0 mm 10 mps 745 mmHg 43%
    17:00 +16°C° 0 mm 9 mps 745 mmHg 45%
    18:00 +15°C° 0 mm 8 mps 745 mmHg 47%
    19:00 +13°C° 0 mm 8 mps 745 mmHg 49%
    20:00 +12°C° 0 mm 8 mps 745 mmHg 50%
    21:00 +12°C° 0 mm 8 mps 745 mmHg 51%
    22:00 +12°C° 0 mm 8 mps 745 mmHg 51%
    23:00 +11°C° 0 mm 8 mps 745 mmHg 52%

    Tomorrow, 24 April, Wednesday

    Time Temperature Precipitation Wind Pressure Humidity
    00:00 +11°C° 0 mm 8 mps 745 mmHg 53%
    01:00 +10°C° 0 mm 8 mps 744 mmHg 55%
    02:00 +10°C° 0 mm 7 mps 744 mmHg 57%
    03:00 +10°C° 0 mm 7 mps 744 mmHg 60%
    04:00 +9°C° 0 mm 7 mps 744 mmHg 63%
    05:00 +10°C° 0 mm 8 mps 744 mmHg 63%
    06:00 +10°C° 0 mm 8 mps 744 mmHg 64%
    07:00 +11°C° 0 mm 8 mps 744 mmHg 65%
    08:00 +12°C° 0 mm 8 mps 744 mmHg 62%
    09:00 +15°C° 0 mm 8 mps 744 mmHg 59%
    10:00 +16°C° 0 mm 8 mps 744 mmHg 56%
    11:00 +16°C° 0 mm 8 mps 744 mmHg 57%
    12:00 +16°C° 0 mm 7 mps 744 mmHg 58%
    13:00 +16°C° 0 mm 7 mps 744 mmHg 59%
    14:00 +16°C° 0 mm 7 mps 744 mmHg 60%
    15:00 +16°C° 0 mm 6 mps 744 mmHg 61%
    16:00 +16°C° 0 mm 6 mps 744 mmHg 62%
    17:00 +15°C° 0 mm 6 mps 744 mmHg 64%
    18:00 +15°C° 0 mm 6 mps 744 mmHg 66%
    19:00 +14°C° 0 mm 6 mps 744 mmHg 68%
    20:00 +13°C° 0 mm 6 mps 744 mmHg 71%
    21:00 +13°C° 0 mm 5 mps 744 mmHg 73%
    22:00 +13°C° 0 mm 5 mps 744 mmHg 76%
    23:00 +13°C° 0 mm 5 mps 744 mmHg 75%

    Day after tomorrow, 25 April, Thursday

    Time Temperature Precipitation Wind Pressure Humidity
    00:00 +13°C° 0 mm 5 mps 744 mmHg 75%
    01:00 +14°C° 0 mm 6 mps 744 mmHg 74%
    02:00 +13°C° 0 mm 5 mps 744 mmHg 77%
    03:00 +13°C° 0 mm 5 mps 744 mmHg 81%
    04:00 +12°C° 0 mm 5 mps 744 mmHg 84%
    05:00 +13°C° 0 mm 5 mps 744 mmHg 80%
    06:00 +14°C° 0 mm 5 mps 744 mmHg 77%
    07:00 +17°C° 0 mm 4 mps 744 mmHg 73%
    08:00 +18°C° 0 mm 4 mps 744 mmHg 67%
    09:00 +20°C° 0 mm 4 mps 744 mmHg 61%
    10:00 +21°C° 0 mm 4 mps 745 mmHg 56%
    11:00 +22°C° 0 mm 4 mps 744 mmHg 54%
    12:00 +23°C° 0 mm 4 mps 744 mmHg 51%
    13:00 +25°C° 0 mm 4 mps 744 mmHg 49%
    14:00 +23°C° 0 mm 4 mps 744 mmHg 51%
    15:00 +24°C° 0 mm 3 mps 744 mmHg 52%
    16:00 +22°C° 0 mm 3 mps 744 mmHg 54%
    17:00 +21°C° 0 mm 3 mps 744 mmHg 58%
    18:00 +20°C° 0 mm 3 mps 744 mmHg 63%
    19:00 +18°C° 0 mm 3 mps 744 mmHg 67%
    20:00 +18°C° 0 mm 3 mps 744 mmHg 68%
    21:00 +17°C° 0 mm 3 mps 744 mmHg 70%
    22:00 +17°C° 0 mm 3 mps 744 mmHg 71%
    23:00 +16°C° 0 mm 3 mps 744 mmHg 72%

    26 April, Friday

    Time Temperature Precipitation Wind Pressure Humidity
    00:00 +16°C° 0 mm 3 mps 744 mmHg 73%
    01:00 +16°C° 0 mm 3 mps 744 mmHg 74%
    02:00 +14°C° 0 mm 3 mps 743 mmHg 76%
    03:00 +14°C° 0 mm 3 mps 743 mmHg 77%
    04:00 +13°C° 0 mm 3 mps 743 mmHg 78%
    05:00 +16°C° 0 mm 3 mps 743 mmHg 75%
    06:00 +17°C° 0 mm 4 mps 742 mmHg 71%
    07:00 +18°C° 0 mm 4 mps 742 mmHg 68%
    08:00 +20°C° 0 mm 4 mps 742 mmHg 62%
    09:00 +22°C° 0 mm 4 mps 742 mmHg 56%
    10:00 +25°C° 0 mm 3 mps 741 mmHg 51%
    11:00 +25°C° 0 mm 4 mps 741 mmHg 48%
    12:00 +26°C° 0 mm 4 mps 741 mmHg 45%
    13:00 +27°C° 0 mm 4 mps 740 mmHg 42%
    14:00 +27°C° 0 mm 4 mps 740 mmHg 43%
    15:00 +27°C° 0 mm 4 mps 740 mmHg 43%
    16:00 +27°C° 0 mm 4 mps 740 mmHg 44%
    17:00 +25°C° 0 mm 3 mps 739 mmHg 50%
    18:00 +24°C° 0 mm 2 mps 739 mmHg 56%
    19:00 +21°C° 0 mm 2 mps 739 mmHg 62%
    20:00 +20°C° 0 mm 2 mps 739 mmHg 64%
    21:00 +20°C° 0 mm 2 mps 739 mmHg 66%
    22:00 +19°C° 0 mm 2 mps 739 mmHg 68%
    23:00 +18°C° 0.1 mm 2 mps 739 mmHg 73%

    27 April, Saturday

    Time Temperature Precipitation Wind Pressure Humidity
    00:00 +17°C° 0.1 mm 2 mps 739 mmHg 78%
    01:00 +16°C° 0.1 mm 3 mps 739 mmHg 82%
    02:00 +16°C° 0.4 mm 3 mps 739 mmHg 87%
    03:00 +16°C° 0.4 mm 3 mps 739 mmHg 92%
    04:00 +14°C° 0.4 mm 3 mps 739 mmHg 96%
    05:00 +16°C° 0.2 mm 3 mps 739 mmHg 94%
    06:00 +16°C° 0.2 mm 3 mps 739 mmHg 93%
    07:00 +16°C° 0.2 mm 3 mps 739 mmHg 91%
    08:00 +16°C° 0.1 mm 3 mps 739 mmHg 90%
    09:00 +15°C° 0.1 mm 4 mps 740 mmHg 89%
    10:00 +14°C° 0.1 mm 4 mps 740 mmHg 88%
    11:00 +13°C° 0.1 mm 5 mps 740 mmHg 87%
    12:00 +12°C° 0.1 mm 5 mps 741 mmHg 85%
    13:00 +10°C° 0.1 mm 6 mps 741 mmHg 84%
    14:00 +10°C° 0 mm 6 mps 741 mmHg 83%
    15:00 +9°C° 0 mm 6 mps 741 mmHg 81%
    16:00 +9°C° 0 mm 6 mps 741 mmHg 80%
    17:00 +9°C° 0 mm 5 mps 742 mmHg 81%
    18:00 +10°C° 0 mm 4 mps 742 mmHg 81%
    19:00 +10°C° 0 mm 4 mps 743 mmHg 81%
    20:00 +10°C° 0.1 mm 4 mps 743 mmHg 83%
    21:00 +10°C° 0.1 mm 4 mps 743 mmHg 85%
    22:00 +10°C° 0.1 mm 4 mps 743 mmHg 87%
    23:00 +8°C° 0.1 mm 4 mps 743 mmHg 89%

    28 April, Sunday

    Time Temperature Precipitation Wind Pressure Humidity
    00:00 +9°C° 0.1 mm 3 mps 743 mmHg 92%
    01:00 +9°C° 0.1 mm 3 mps 744 mmHg 94%
    02:00 +8°C° 0 mm 3 mps 744 mmHg 94%
    03:00 +8°C° 0 mm 3 mps 744 mmHg 95%
    04:00 +8°C° 0 mm 2 mps 744 mmHg 96%
    05:00 +8°C° 0 mm 3 mps 744 mmHg 93%
    06:00 +9°C° 0 mm 3 mps 744 mmHg 91%
    07:00 +10°C° 0 mm 4 mps 745 mmHg 88%
    08:00 +11°C° 0.1 mm 4 mps 745 mmHg 82%
    09:00 +12°C° 0.1 mm 3 mps 745 mmHg 76%
    10:00 +13°C° 0.1 mm 3 mps 745 mmHg 70%
    11:00 +14°C° 0.2 mm 3 mps 745 mmHg 65%
    12:00 +16°C° 0.2 mm 3 mps 745 mmHg 60%
    13:00 +17°C° 0.2 mm 3 mps 745 mmHg 54%
    14:00 +17°C° 0.2 mm 3 mps 745 mmHg 55%
    15:00 +17°C° 0.2 mm 3 mps 745 mmHg 55%
    16:00 +17°C° 0.2 mm 3 mps 745 mmHg 56%
    17:00 +16°C° 0.1 mm 2 mps 745 mmHg 62%
    18:00 +14°C° 0.1 mm 2 mps 745 mmHg 69%
    19:00 +13°C° 0.1 mm 2 mps 745 mmHg 75%
    20:00 +12°C° 0 mm 2 mps 746 mmHg 78%
    21:00 +10°C° 0 mm 2 mps 746 mmHg 81%
    22:00 +10°C° 0 mm 2 mps 746 mmHg 85%
    23:00 +9°C° 0 mm 2 mps 747 mmHg 86%
    Show more